Location: East Guldeford
(50.9500°N, 0.7500°E)
Time: 16:09:27
(UTC+00:00)

Cosmos 2074 Rocket - Pass Details

Date: 12 May 2021
Orbit: 968 x 985 km, 82.9° (Epoch: 15 June)

Event Time Altitude Azimuth Distance (km) Brightness Sun altitude
Rises 21:34:04 0° 348° (NNW) 3,707 8.4 -14.2°
Reaches altitude 10° 21:36:36 10° 346° (NNW) 2,755 7.5 -14.5°
Maximum altitude 21:42:53 69° 265° (W) 1,052 4.3 -15.0°
Enters shadow 21:48:08 15° 185° (S) 2,376 5.6 -15.4°
